FHV69 KSLC-KSAN

Flight info

Callsign FHV69
Flight time 1h 31m
Altitude 34000
Route ARCHZ1 WINEN LAKRR Q73 LVELL LUCKI1
Aircraft A21N/M-SDE3FGHIRWY/LB1

Departure

Time 2026-04-22 21:08
Airport Salt Lake City International Airport (KSLC)

Arrival

Time 2026-04-22 22:40
Airport San Diego International Airport (KSAN)
Time Latitude Longitude Altitude Speed Heading
2026-04-22 20:35 40.78923 -111.98758 4227 ft 0 kts 169°
2026-04-22 20:57 40.78932 -111.98759 4227 ft 2 kts 187°
2026-04-22 20:57 40.78947 -111.98751 4227 ft 2 kts 225°
2026-04-22 20:58 40.78954 -111.98734 4227 ft 1 kts 261°
2026-04-22 20:58 40.78954 -111.98722 4227 ft 0 kts 280°
2026-04-22 21:01 40.78954 -111.98727 4227 ft 1 kts 275°
2026-04-22 21:01 40.78954 -111.98756 4227 ft 5 kts 266°
2026-04-22 21:01 40.78946 -111.98838 4226 ft 10 kts 264°
2026-04-22 21:02 40.78938 -111.98933 4226 ft 9 kts 264°
2026-04-22 21:02 40.78932 -111.99024 4226 ft 9 kts 266°
2026-04-22 21:02 40.78930 -111.99106 4226 ft 8 kts 266°
2026-04-22 21:02 40.78924 -111.99176 4226 ft 7 kts 263°
2026-04-22 21:03 40.78914 -111.99236 4226 ft 6 kts 248°
2026-04-22 21:03 40.78884 -111.99284 4226 ft 7 kts 227°
2026-04-22 21:03 40.78844 -111.99341 4226 ft 9 kts 226°
2026-04-22 21:03 40.78781 -111.99380 4226 ft 11 kts 178°
2026-04-22 21:04 40.78694 -111.99370 4226 ft 13 kts 174°
2026-04-22 21:04 40.78595 -111.99357 4226 ft 15 kts 175°
2026-04-22 21:04 40.78487 -111.99345 4226 ft 16 kts 175°
2026-04-22 21:04 40.78370 -111.99334 4226 ft 17 kts 176°
2026-04-22 21:05 40.78248 -111.99318 4226 ft 18 kts 173°
2026-04-22 21:05 40.78120 -111.99303 4226 ft 18 kts 175°
2026-04-22 21:05 40.77987 -111.99287 4227 ft 19 kts 175°
2026-04-22 21:05 40.77848 -111.99274 4227 ft 20 kts 176°
2026-04-22 21:06 40.77706 -111.99258 4227 ft 20 kts 174°
2026-04-22 21:06 40.77568 -111.99249 4227 ft 18 kts 193°
2026-04-22 21:06 40.77509 -111.99344 4228 ft 11 kts 270°
2026-04-22 21:06 40.77519 -111.99419 4228 ft 5 kts 280°
2026-04-22 21:07 40.77522 -111.99481 4228 ft 9 kts 272°
2026-04-22 21:07 40.77555 -111.99551 4228 ft 9 kts 347°
2026-04-22 21:07 40.77647 -111.99563 4227 ft 31 kts 355°
2026-04-22 21:07 40.78103 -111.99617 4227 ft 98 kts 355°
2026-04-22 21:08 40.78979 -111.99724 4226 ft 154 kts 354°
2026-04-22 21:08 40.80146 -111.99844 4573 ft 171 kts 358°
2026-04-22 21:08 40.81332 -112.00063 5157 ft 177 kts 340°
2026-04-22 21:08 40.82204 -112.01197 5768 ft 189 kts 295°
2026-04-22 21:09 40.82299 -112.02956 6187 ft 206 kts 258°
2026-04-22 21:09 40.81747 -112.04779 6501 ft 223 kts 251°
2026-04-22 21:09 40.81148 -112.06739 6819 ft 238 kts 252°
2026-04-22 21:09 40.80533 -112.08860 7061 ft 259 kts 252°
2026-04-22 21:10 40.79886 -112.11155 7435 ft 276 kts 253°
2026-04-22 21:10 40.79207 -112.13569 8012 ft 283 kts 253°
2026-04-22 21:10 40.78532 -112.15988 8796 ft 282 kts 253°
2026-04-22 21:10 40.77869 -112.18383 9446 ft 284 kts 252°
2026-04-22 21:11 40.77187 -112.20853 10072 ft 289 kts 251°
2026-04-22 21:11 40.76481 -112.23388 10558 ft 299 kts 249°
2026-04-22 21:11 40.75417 -112.25805 10841 ft 316 kts 227°
2026-04-22 21:11 40.73617 -112.27526 11156 ft 331 kts 205°
2026-04-22 21:12 40.71329 -112.28251 11558 ft 345 kts 189°
2026-04-22 21:12 40.68933 -112.28664 12283 ft 346 kts 191°
2026-04-22 21:12 40.66597 -112.29113 13145 ft 343 kts 192°
2026-04-22 21:12 40.64228 -112.29590 13928 ft 342 kts 193°
2026-04-22 21:13 40.62067 -112.30035 14476 ft 345 kts 193°
2026-04-22 21:13 40.59680 -112.30526 15041 ft 348 kts 193°
2026-04-22 21:13 40.57274 -112.31094 15611 ft 352 kts 195°
2026-04-22 21:13 40.54906 -112.31850 16206 ft 355 kts 199°
2026-04-22 21:14 40.52500 -112.32804 16782 ft 358 kts 200°
2026-04-22 21:14 40.50137 -112.33772 17344 ft 361 kts 201°
2026-04-22 21:14 40.47733 -112.34754 17889 ft 364 kts 201°
2026-04-22 21:14 40.45296 -112.35750 18441 ft 368 kts 200°
2026-04-22 21:15 40.42839 -112.36752 18961 ft 370 kts 201°
2026-04-22 21:15 40.40361 -112.37759 19472 ft 373 kts 201°
2026-04-22 21:15 40.37869 -112.38774 19970 ft 376 kts 201°
2026-04-22 21:15 40.35373 -112.39787 20416 ft 379 kts 202°
2026-04-22 21:16 40.32847 -112.40811 20945 ft 379 kts 203°
2026-04-22 21:16 40.30330 -112.41834 21428 ft 381 kts 204°
2026-04-22 21:16 40.27790 -112.42869 21926 ft 382 kts 204°
2026-04-22 21:16 40.25253 -112.43902 22432 ft 382 kts 204°
2026-04-22 21:17 40.22723 -112.44929 22889 ft 382 kts 205°
2026-04-22 21:17 40.20194 -112.46047 23262 ft 382 kts 208°
2026-04-22 21:17 40.17741 -112.47344 23732 ft 379 kts 212°
2026-04-22 21:17 40.15381 -112.48810 24215 ft 375 kts 215°
2026-04-22 21:18 40.13099 -112.50397 24625 ft 375 kts 216°
2026-04-22 21:18 40.10789 -112.52026 25028 ft 376 kts 216°
2026-04-22 21:18 40.08493 -112.53635 25489 ft 374 kts 217°
2026-04-22 21:18 40.06213 -112.55229 25906 ft 373 kts 217°
2026-04-22 21:19 40.03915 -112.56844 26390 ft 371 kts 217°
2026-04-22 21:19 40.01656 -112.58433 26697 ft 373 kts 217°
2026-04-22 21:19 39.99345 -112.60059 26909 ft 376 kts 217°
2026-04-22 21:19 39.97024 -112.61684 27191 ft 378 kts 217°
2026-04-22 21:20 39.94739 -112.63281 27559 ft 377 kts 217°
2026-04-22 21:20 39.92435 -112.64888 27946 ft 375 kts 217°
2026-04-22 21:20 39.90120 -112.66510 28356 ft 374 kts 217°
2026-04-22 21:20 39.87807 -112.68123 28750 ft 373 kts 216°
2026-04-22 21:21 39.85593 -112.69672 29153 ft 372 kts 216°
2026-04-22 21:21 39.83276 -112.71286 29609 ft 369 kts 216°
2026-04-22 21:21 39.81077 -112.72825 30076 ft 366 kts 217°
2026-04-22 21:21 39.78815 -112.74397 30455 ft 364 kts 217°
2026-04-22 21:22 39.76527 -112.75999 30695 ft 366 kts 216°
2026-04-22 21:22 39.74278 -112.77561 31016 ft 365 kts 217°
2026-04-22 21:22 39.72037 -112.79108 31258 ft 368 kts 216°
2026-04-22 21:22 39.69716 -112.80570 31470 ft 372 kts 213°
2026-04-22 21:23 39.67310 -112.81905 31716 ft 375 kts 212°
2026-04-22 21:23 39.64851 -112.83094 31977 ft 379 kts 209°
2026-04-22 21:23 39.62303 -112.84160 32269 ft 380 kts 206°
2026-04-22 21:23 39.59806 -112.85153 32516 ft 380 kts 207°
2026-04-22 21:24 39.57258 -112.86184 32632 ft 383 kts 207°
2026-04-22 21:24 39.54695 -112.87215 32798 ft 385 kts 207°
2026-04-22 21:24 39.52128 -112.88239 33005 ft 386 kts 207°
2026-04-22 21:24 39.49527 -112.89281 33209 ft 387 kts 207°
2026-04-22 21:25 39.46950 -112.90309 33464 ft 386 kts 207°
2026-04-22 21:25 39.44371 -112.91331 33647 ft 387 kts 207°
2026-04-22 21:25 39.41820 -112.92347 33753 ft 389 kts 207°
2026-04-22 21:25 39.39185 -112.93394 33848 ft 392 kts 207°
2026-04-22 21:26 39.33925 -112.95484 33967 ft 397 kts 207°
2026-04-22 21:26 39.28569 -112.97605 34055 ft 403 kts 207°
2026-04-22 21:27 39.23171 -112.99738 34062 ft 409 kts 207°
2026-04-22 21:27 39.17683 -113.01901 34060 ft 408 kts 207°
2026-04-22 21:28 39.12259 -113.04024 34068 ft 406 kts 207°
2026-04-22 21:28 39.06851 -113.06150 34059 ft 406 kts 207°
2026-04-22 21:29 39.01418 -113.08285 34065 ft 405 kts 207°
2026-04-22 21:29 38.96032 -113.10394 34055 ft 405 kts 207°
2026-04-22 21:30 38.90644 -113.12502 34059 ft 402 kts 207°
2026-04-22 21:30 38.85193 -113.14629 34058 ft 403 kts 207°
2026-04-22 21:31 38.79762 -113.16743 34059 ft 404 kts 207°
2026-04-22 21:31 38.74361 -113.18851 34062 ft 404 kts 207°
2026-04-22 21:32 38.68966 -113.20946 34062 ft 405 kts 207°
2026-04-22 21:32 38.63533 -113.23055 34066 ft 407 kts 207°
2026-04-22 21:33 38.58083 -113.25171 34062 ft 407 kts 207°
2026-04-22 21:33 38.52684 -113.27257 34061 ft 405 kts 207°
2026-04-22 21:34 38.47265 -113.29349 34061 ft 405 kts 207°
2026-04-22 21:34 38.41828 -113.31447 34061 ft 406 kts 207°
2026-04-22 21:35 38.36421 -113.33528 34069 ft 407 kts 207°
2026-04-22 21:35 38.30964 -113.35625 34078 ft 407 kts 207°
2026-04-22 21:36 38.25533 -113.37713 34083 ft 405 kts 207°
2026-04-22 21:36 38.20137 -113.39775 34093 ft 406 kts 207°
2026-04-22 21:37 38.14702 -113.41851 34098 ft 407 kts 208°
2026-04-22 21:37 38.09245 -113.43942 34100 ft 407 kts 207°
2026-04-22 21:38 38.03821 -113.46014 34106 ft 407 kts 207°
2026-04-22 21:38 37.98342 -113.48096 34105 ft 408 kts 207°
2026-04-22 21:39 37.92928 -113.50195 34101 ft 404 kts 209°
2026-04-22 21:39 37.87572 -113.52534 34105 ft 403 kts 209°
2026-04-22 21:40 37.82188 -113.54867 34097 ft 406 kts 209°
2026-04-22 21:40 37.76796 -113.57210 34095 ft 404 kts 209°
2026-04-22 21:41 37.71469 -113.59515 34095 ft 406 kts 209°
2026-04-22 21:41 37.66083 -113.61852 34090 ft 408 kts 209°
2026-04-22 21:42 37.60702 -113.64183 34085 ft 407 kts 209°
2026-04-22 21:42 37.55286 -113.66520 34084 ft 407 kts 208°
2026-04-22 21:43 37.49868 -113.68858 34079 ft 408 kts 208°
2026-04-22 21:43 37.44446 -113.71191 34077 ft 409 kts 208°
2026-04-22 21:44 37.39051 -113.73511 34084 ft 409 kts 208°
2026-04-22 21:44 37.33631 -113.75839 34075 ft 410 kts 208°
2026-04-22 21:45 37.28222 -113.78158 34063 ft 410 kts 208°
2026-04-22 21:45 37.22787 -113.80484 34063 ft 409 kts 208°
2026-04-22 21:46 37.17388 -113.82789 34061 ft 411 kts 208°
2026-04-22 21:46 37.11945 -113.85117 34050 ft 411 kts 208°
2026-04-22 21:47 37.06547 -113.87418 34036 ft 410 kts 208°
2026-04-22 21:47 37.01109 -113.89733 34018 ft 412 kts 208°
2026-04-22 21:48 36.95671 -113.92045 34014 ft 413 kts 208°
2026-04-22 21:48 36.90214 -113.94358 34004 ft 414 kts 208°
2026-04-22 21:49 36.84666 -113.96715 34001 ft 414 kts 208°
2026-04-22 21:49 36.79356 -113.98957 34008 ft 412 kts 208°
2026-04-22 21:50 36.73884 -114.01266 34001 ft 415 kts 208°
2026-04-22 21:50 36.68413 -114.03579 34005 ft 415 kts 208°
2026-04-22 21:51 36.62897 -114.05903 34012 ft 415 kts 208°
2026-04-22 21:52 36.54691 -114.09348 34018 ft 416 kts 208°
2026-04-22 21:52 36.49199 -114.11650 34017 ft 417 kts 208°
2026-04-22 21:53 36.43660 -114.13969 34016 ft 418 kts 208°
2026-04-22 21:53 36.38125 -114.16284 34014 ft 418 kts 207°
2026-04-22 21:54 36.32599 -114.18591 34017 ft 419 kts 207°
2026-04-22 21:54 36.27026 -114.20915 34015 ft 419 kts 208°
2026-04-22 21:55 36.21503 -114.23216 34027 ft 421 kts 207°
2026-04-22 21:55 36.15982 -114.25674 34024 ft 416 kts 211°
2026-04-22 21:56 36.10863 -114.28899 34016 ft 408 kts 219°
2026-04-22 21:56 36.06236 -114.32895 34002 ft 402 kts 225°
2026-04-22 21:57 36.02218 -114.37468 33996 ft 396 kts 232°
2026-04-22 21:57 35.98511 -114.42529 33986 ft 396 kts 233°
2026-04-22 21:58 35.94831 -114.47590 33993 ft 398 kts 233°
2026-04-22 21:58 35.91128 -114.52692 33992 ft 396 kts 233°
2026-04-22 21:59 35.87436 -114.57777 33988 ft 398 kts 233°
2026-04-22 21:59 35.83704 -114.62910 33986 ft 399 kts 234°
2026-04-22 22:00 35.79964 -114.68050 33981 ft 399 kts 233°
2026-04-22 22:00 35.76185 -114.73242 33983 ft 400 kts 233°
2026-04-22 22:01 35.72460 -114.78349 33981 ft 400 kts 233°
2026-04-22 22:01 35.68749 -114.83427 33994 ft 401 kts 233°
2026-04-22 22:02 35.64993 -114.88567 34001 ft 401 kts 233°
2026-04-22 22:02 35.61268 -114.93663 34013 ft 402 kts 233°
2026-04-22 22:03 35.57522 -114.98761 34021 ft 402 kts 232°
2026-04-22 22:03 35.53332 -115.03511 34031 ft 410 kts 225°
2026-04-22 22:04 35.48613 -115.07563 34039 ft 417 kts 218°
2026-04-22 22:04 35.43391 -115.10848 34042 ft 425 kts 211°
2026-04-22 22:05 35.37794 -115.13367 34042 ft 429 kts 207°
2026-04-22 22:05 35.32144 -115.15749 34040 ft 429 kts 207°
2026-04-22 22:06 35.26448 -115.18136 34043 ft 432 kts 207°
2026-04-22 22:06 35.20743 -115.20520 34050 ft 432 kts 207°
2026-04-22 22:07 35.15004 -115.22852 34050 ft 436 kts 205°
2026-04-22 22:07 35.09045 -115.24666 34043 ft 441 kts 201°
2026-04-22 22:08 35.03011 -115.26308 34043 ft 441 kts 201°
2026-04-22 22:08 34.97003 -115.27941 34036 ft 442 kts 201°
2026-04-22 22:09 34.90984 -115.29572 34034 ft 442 kts 201°
2026-04-22 22:09 34.84910 -115.31212 34025 ft 440 kts 201°
2026-04-22 22:10 34.78885 -115.32916 34024 ft 438 kts 204°
2026-04-22 22:10 34.73079 -115.35139 34015 ft 435 kts 207°
2026-04-22 22:11 34.67318 -115.37488 34007 ft 434 kts 207°
2026-04-22 22:11 34.61567 -115.39823 34016 ft 434 kts 207°
2026-04-22 22:12 34.55827 -115.42159 34001 ft 433 kts 207°
2026-04-22 22:12 34.50095 -115.44485 33997 ft 431 kts 207°
2026-04-22 22:13 34.44399 -115.46796 33993 ft 433 kts 207°
2026-04-22 22:13 34.38782 -115.49322 33987 ft 426 kts 212°
2026-04-22 22:14 34.33450 -115.52437 34007 ft 422 kts 217°
2026-04-22 22:14 34.28408 -115.56050 34013 ft 419 kts 220°
2026-04-22 22:15 34.23391 -115.59659 34020 ft 420 kts 217°
2026-04-22 22:15 34.18097 -115.62794 34021 ft 426 kts 212°
2026-04-22 22:16 34.12538 -115.65472 34031 ft 428 kts 210°
2026-04-22 22:16 34.06922 -115.68140 34019 ft 427 kts 210°
2026-04-22 22:17 34.01378 -115.70759 34025 ft 428 kts 210°
2026-04-22 22:17 33.95792 -115.73391 34020 ft 428 kts 210°
2026-04-22 22:18 33.90271 -115.76007 34045 ft 427 kts 211°
2026-04-22 22:18 33.84703 -115.78747 34060 ft 426 kts 211°
2026-04-22 22:19 33.79203 -115.81453 33537 ft 427 kts 211°
2026-04-22 22:19 33.76409 -115.82817 32942 ft 429 kts 211°
2026-04-22 22:19 33.73650 -115.84125 32269 ft 430 kts 210°
2026-04-22 22:19 33.70836 -115.85437 31511 ft 431 kts 209°
2026-04-22 22:20 33.68059 -115.86732 30741 ft 432 kts 209°
2026-04-22 22:20 33.65250 -115.88042 29946 ft 433 kts 209°
2026-04-22 22:20 33.62418 -115.89368 29133 ft 435 kts 208°
2026-04-22 22:20 33.59573 -115.90695 28310 ft 436 kts 208°
2026-04-22 22:21 33.56765 -115.92001 27486 ft 438 kts 208°
2026-04-22 22:21 33.53994 -115.93494 26619 ft 433 kts 216°
2026-04-22 22:21 33.51564 -115.95537 25769 ft 427 kts 225°
2026-04-22 22:21 33.49483 -115.98132 25437 ft 433 kts 234°
2026-04-22 22:22 33.47697 -116.01070 25219 ft 438 kts 238°
2026-04-22 22:22 33.45954 -116.04037 24414 ft 436 kts 238°
2026-04-22 22:22 33.44244 -116.06973 23535 ft 433 kts 238°
2026-04-22 22:22 33.42534 -116.09908 22640 ft 431 kts 238°
2026-04-22 22:23 33.40818 -116.12859 21695 ft 429 kts 238°
2026-04-22 22:23 33.39132 -116.15752 21050 ft 422 kts 238°
2026-04-22 22:23 33.37450 -116.18637 20426 ft 415 kts 238°
2026-04-22 22:23 33.35801 -116.21411 19799 ft 410 kts 235°
2026-04-22 22:24 33.33852 -116.23920 19147 ft 408 kts 226°
2026-04-22 22:24 33.31612 -116.26008 18506 ft 407 kts 218°
2026-04-22 22:24 33.29162 -116.27672 17902 ft 408 kts 212°
2026-04-22 22:24 33.26624 -116.29186 17238 ft 405 kts 211°
2026-04-22 22:25 33.24108 -116.30660 16600 ft 403 kts 211°
2026-04-22 22:25 33.21583 -116.32135 16002 ft 400 kts 211°
2026-04-22 22:25 33.19074 -116.33600 15363 ft 397 kts 211°
2026-04-22 22:25 33.16636 -116.35023 14971 ft 387 kts 211°
2026-04-22 22:26 33.14235 -116.36423 14648 ft 376 kts 211°
2026-04-22 22:26 33.11923 -116.37771 14348 ft 365 kts 211°
2026-04-22 22:26 33.09661 -116.39091 14093 ft 352 kts 211°
2026-04-22 22:26 33.07510 -116.40348 13828 ft 340 kts 211°
2026-04-22 22:27 33.05394 -116.41585 13559 ft 330 kts 211°
2026-04-22 22:27 33.03379 -116.42757 13403 ft 316 kts 211°
2026-04-22 22:27 33.01456 -116.43956 13248 ft 303 kts 216°
2026-04-22 22:27 32.99735 -116.45300 13029 ft 297 kts 221°
2026-04-22 22:28 32.98128 -116.46834 12596 ft 295 kts 225°
2026-04-22 22:28 32.96561 -116.48422 12203 ft 294 kts 225°
2026-04-22 22:28 32.95007 -116.50003 11815 ft 292 kts 225°
2026-04-22 22:28 32.93451 -116.51582 11422 ft 292 kts 225°
2026-04-22 22:29 32.91924 -116.53128 11026 ft 291 kts 224°
2026-04-22 22:29 32.90361 -116.54706 10611 ft 290 kts 224°
2026-04-22 22:29 32.88832 -116.56247 10220 ft 287 kts 224°
2026-04-22 22:29 32.87329 -116.57760 10058 ft 277 kts 224°
2026-04-22 22:30 32.85871 -116.59224 9921 ft 268 kts 224°
2026-04-22 22:30 32.84438 -116.60665 9634 ft 267 kts 224°
2026-04-22 22:30 32.83030 -116.62084 9307 ft 266 kts 224°
2026-04-22 22:30 32.81611 -116.63517 8932 ft 266 kts 224°
2026-04-22 22:31 32.80203 -116.64934 8577 ft 263 kts 224°
2026-04-22 22:31 32.78824 -116.66325 8249 ft 262 kts 223°
2026-04-22 22:31 32.77527 -116.67876 7873 ft 261 kts 232°
2026-04-22 22:31 32.76503 -116.69633 7487 ft 261 kts 240°
2026-04-22 22:32 32.75602 -116.71509 7095 ft 262 kts 240°
2026-04-22 22:32 32.74706 -116.73428 6727 ft 264 kts 240°
2026-04-22 22:32 32.73809 -116.75339 6364 ft 263 kts 240°
2026-04-22 22:32 32.72926 -116.77209 6023 ft 262 kts 240°
2026-04-22 22:33 32.72038 -116.79082 5846 ft 251 kts 240°
2026-04-22 22:33 32.71194 -116.80868 5820 ft 246 kts 243°
2026-04-22 22:33 32.70466 -116.82691 5814 ft 246 kts 248°
2026-04-22 22:33 32.69857 -116.84596 5531 ft 242 kts 250°
2026-04-22 22:34 32.69286 -116.86449 5294 ft 236 kts 251°
2026-04-22 22:34 32.68728 -116.88262 5045 ft 230 kts 251°
2026-04-22 22:34 32.68210 -116.90010 5000 ft 215 kts 252°
2026-04-22 22:34 32.67728 -116.91660 5078 ft 210 kts 252°
2026-04-22 22:35 32.67352 -116.93317 5018 ft 209 kts 265°
2026-04-22 22:35 32.67487 -116.95006 5010 ft 208 kts 284°
2026-04-22 22:35 32.67898 -116.96675 5008 ft 209 kts 288°
2026-04-22 22:35 32.68347 -116.98305 4909 ft 205 kts 288°
2026-04-22 22:36 32.68769 -116.99911 4473 ft 202 kts 287°
2026-04-22 22:36 32.69152 -117.01466 4017 ft 195 kts 286°
2026-04-22 22:36 32.69517 -117.02999 3621 ft 188 kts 286°
2026-04-22 22:36 32.69864 -117.04461 3239 ft 182 kts 286°
2026-04-22 22:37 32.70204 -117.05895 2845 ft 177 kts 286°
2026-04-22 22:37 32.70535 -117.07278 2458 ft 173 kts 287°
2026-04-22 22:37 32.70854 -117.08606 2130 ft 165 kts 287°
2026-04-22 22:37 32.71166 -117.09903 1675 ft 164 kts 287°
2026-04-22 22:38 32.71471 -117.11171 1359 ft 155 kts 287°
2026-04-22 22:38 32.71749 -117.12322 1164 ft 138 kts 287°
2026-04-22 22:38 32.72010 -117.13403 965 ft 133 kts 288°
2026-04-22 22:38 32.72263 -117.14458 760 ft 132 kts 288°
2026-04-22 22:39 32.72519 -117.15495 540 ft 132 kts 287°
2026-04-22 22:39 32.72772 -117.16539 326 ft 129 kts 287°
2026-04-22 22:39 32.73014 -117.17557 106 ft 125 kts 288°
2026-04-22 22:39 32.73253 -117.18536 24 ft 116 kts 287°
2026-04-22 22:40 32.73395 -117.19111 23 ft 28 kts 284°
2026-04-22 22:40 32.73442 -117.19326 23 ft 26 kts 275°
2026-04-22 22:40 32.73422 -117.19482 23 ft 7 kts 252°
2026-04-22 22:40 32.73414 -117.19511 23 ft 2 kts 251°
2026-04-22 22:41 32.73409 -117.19530 23 ft 2 kts 254°
2026-04-22 22:41 32.73406 -117.19561 23 ft 5 kts 271°
2026-04-22 22:41 32.73410 -117.19629 23 ft 11 kts 282°
2026-04-22 22:41 32.73439 -117.19745 22 ft 17 kts 287°
2026-04-22 22:42 32.73473 -117.19883 22 ft 14 kts 277°
2026-04-22 22:42 32.73408 -117.19961 21 ft 11 kts 195°
2026-04-22 22:42 32.73352 -117.19992 21 ft 4 kts 239°
2026-04-22 22:42 32.73348 -117.20014 21 ft 2 kts 262°
2026-04-22 22:43 32.73346 -117.20042 21 ft 0 kts 263°
2026-04-22 22:43 32.73345 -117.20045 21 ft 0 kts 263°